This is the latest recevied weather packets stored in our database for station/object N1YZ. If no packets are shown the sender has not sent any weather packets the latest 10 day(s).
| Time | Temp. | Humidity | Pressure | Rain* | Wind** | Luminosity | Snow |
|---|---|---|---|---|---|---|---|
| 1777750424 | 21.11° C | 40% | 1034.3 hPa | 0 mm | - | 167 W/m² | - |
| 1777750119 | 21.11° C | 45% | 1034.6 hPa | 0 mm | - | 639 W/m² | - |
| 1777749816 | 21.11° C | 42% | 1034.5 hPa | 0 mm | - | 649 W/m² | - |
| 1777749513 | 21.67° C | 43% | 1034.5 hPa | 0 mm | - | 655 W/m² | - |
| 1777749211 | 21.67° C | 41% | 1034.5 hPa | 0 mm | - | 659 W/m² | - |
| 1777748908 | 21.67° C | 38% | 1034.6 hPa | 0 mm | - | 664 W/m² | - |
| 1777748606 | 21.11° C | 45% | 1034.6 hPa | 0 mm | - | 668 W/m² | - |
| 1777748301 | 21.11° C | 35% | 1034.6 hPa | 0 mm | - | 676 W/m² | - |
| 1777747997 | 20.56° C | 46% | 1035.1 hPa | 0 mm | - | 682 W/m² | - |
| 1777747694 | 20.56° C | 39% | 1034.7 hPa | 0 mm | - | 688 W/m² | - |
| 1777747390 | 21.11° C | 41% | 1034.7 hPa | 0 mm | - | 693 W/m² | - |
| 1777747087 | 21.11° C | 44% | 1034.8 hPa | 0 mm | - | 696 W/m² | - |
| 1777746783 | 21.11° C | 36% | 1034.8 hPa | 0 mm | - | 699 W/m² | - |
| 1777746478 | 21.11° C | 38% | 1035.3 hPa | 0 mm | - | 702 W/m² | - |
| 1777746173 | 20.56° C | 36% | 1035.3 hPa | 0 mm | - | 703 W/m² | - |
| 1777745869 | 20.56° C | 46% | 1035.2 hPa | 0 mm | - | 659 W/m² | - |
| 1777745564 | 20° C | 42% | 1035.2 hPa | 0 mm | - | 711 W/m² | - |
| 1777745261 | 20° C | 42% | 1035.4 hPa | 0 mm | - | 706 W/m² | - |
| 1777744958 | 20.56° C | 43% | 1035.3 hPa | 0 mm | - | 706 W/m² | - |
| 1777744658 | 20° C | 42% | 1035.3 hPa | 0 mm | - | 707 W/m² | - |
| 1777744353 | 20° C | 45% | 1035.3 hPa | 0 mm | - | 709 W/m² | - |
| 1777744050 | 20° C | 43% | 1035.5 hPa | 0 mm | - | 705 W/m² | - |
| 1777743747 | 20° C | 44% | 1035.3 hPa | 0 mm | - | 707 W/m² | - |
| 1777743444 | 20° C | 43% | 1035.4 hPa | 0 mm | - | 706 W/m² | - |
| 1777743141 | 20° C | 47% | 1035.7 hPa | 0 mm | - | 699 W/m² | - |
* Rain latest hour (hover to see other rain measurements)
** Current wind speed in m/s (hover to see current wind gust speed)